2018-03-25T00:01:01Z,166.140.102.113,# 15.2952,  4.14516,    3.028, 0.9644, 17.203, 0.748111,  33.4121, 25 Mar 2018 00:00:52,  24.6835, 12.6, 216.5
2018-03-25T00:05:01Z,166.140.102.113,# 15.3303,  4.14814,    2.969, 0.9594, 17.156, 0.747330,  33.4090, 25 Mar 2018 00:04:52,  24.6735, 12.6, 218.5
2018-03-25T00:09:01Z,166.140.102.113,# 15.3654,  4.15132,    3.052, 0.9744, 17.100, 0.746593,  33.4077, 25 Mar 2018 00:08:52,  24.6647, 12.6, 215.5
2018-03-25T00:13:01Z,166.140.102.113,# 15.3870,  4.15282,    2.994, 0.9545, 17.054, 0.745881,  33.4028, 25 Mar 2018 00:12:52,  24.6561, 12.6, 213.5
2018-03-25T00:17:01Z,166.140.102.113,# 15.3997,  4.15362,    3.100, 0.9610, 17.026, 0.745433,  33.3992, 25 Mar 2018 00:16:52,  24.6505, 12.6, 216.7
2018-03-25T00:21:01Z,166.140.102.113,# 15.3833,  4.14957,    3.011, 0.9658, 17.006, 0.745345,  33.3768, 25 Mar 2018 00:20:52,  24.6370, 12.6, 217.0
2018-03-25T00:25:01Z,166.140.102.113,# 15.4244,  4.15483,    3.021, 0.9696, 17.016, 0.744801,  33.3891, 25 Mar 2018 00:24:52,  24.6373, 12.6, 219.8
2018-03-25T00:29:01Z,166.140.102.113,# 15.4354,  4.15455,    3.007, 0.9687, 17.011, 0.744514,  33.3772, 25 Mar 2018 00:28:52,  24.6257, 12.6, 218.1
2018-03-25T00:33:01Z,166.140.102.113,# 15.4413,  4.15410,    3.094, 1.0035, 17.039, 0.744331,  33.3682, 25 Mar 2018 00:32:52,  24.6176, 12.6, 219.2
2018-03-25T00:37:01Z,166.140.102.113,# 15.4322,  4.15189,    3.068, 0.9796, 17.091, 0.744420,  33.3561, 25 Mar 2018 00:36:52,  24.6102, 12.6, 219.7
2018-03-25T00:41:01Z,166.140.102.113,# 15.4369,  4.15176,    3.086, 0.9839, 17.137, 0.744368,  33.3509, 25 Mar 2018 00:40:52,  24.6051, 12.6, 221.6
2018-03-25T00:45:01Z,166.140.102.113,# 15.4377,  4.15129,    3.081, 0.9830, 17.151, 0.744316,  33.3460, 25 Mar 2018 00:44:52,  24.6012, 12.6, 220.7
2018-03-25T00:49:01Z,166.140.102.113,# 15.4420,  4.15106,    3.008, 0.9988, 17.156, 0.744239,  33.3403, 25 Mar 2018 00:48:52,  24.5958, 12.6, 218.6
2018-03-25T00:53:01Z,166.140.102.113,# 15.4452,  4.15143,    3.021, 0.9988, 17.182, 0.744169,  33.3409, 25 Mar 2018 00:52:52,  24.5956, 12.6, 215.8
2018-03-25T00:57:01Z,166.140.102.113,# 15.4488,  4.15038,    3.097, 0.9987, 17.201, 0.744073,  33.3284, 25 Mar 2018 00:56:52,  24.5852, 12.6, 216.9
2018-03-25T01:01:01Z,166.140.102.113,# 15.4524,  4.14976,    3.031, 0.9883, 17.217, 0.743981,  33.3198, 25 Mar 2018 01:00:52,  24.5778, 12.6, 214.0
2018-03-25T01:05:01Z,166.140.102.113,# 15.4399,  4.14738,    3.121, 0.9937, 17.239, 0.744087,  33.3091, 25 Mar 2018 01:04:52,  24.5724, 12.6, 217.3
2018-03-25T01:09:01Z,166.140.102.113,# 15.4238,  4.14552,    3.039, 0.9887, 17.284, 0.744332,  33.3061, 25 Mar 2018 01:08:52,  24.5736, 12.6, 216.2
2018-03-25T01:13:01Z,166.140.102.113,# 15.3941,  4.14234,    3.053, 1.0041, 17.372, 0.745256,  33.3027, 25 Mar 2018 01:12:52,  24.5775, 12.6, 216.0
2018-03-25T01:17:01Z,166.140.102.113,# 15.4082,  4.14333,    3.044, 1.0045, 17.374, 0.744985,  33.2996, 25 Mar 2018 01:16:52,  24.5720, 12.6, 219.9
2018-03-25T01:21:01Z,166.140.102.113,# 15.4070,  4.14319,    3.079, 0.9935, 17.376, 0.745037,  33.2994, 25 Mar 2018 01:20:52,  24.5721, 12.6, 217.8
2018-03-25T01:25:01Z,166.140.102.113,# 15.4046,  4.14295,    3.082, 1.0045, 17.423, 0.745127,  33.2993, 25 Mar 2018 01:24:52,  24.5725, 12.6, 218.0
2018-03-25T01:29:01Z,166.140.102.113,# 15.4182,  4.14450,    3.117, 1.0015, 17.416, 0.744815,  33.3016, 25 Mar 2018 01:28:52,  24.5713, 12.6, 218.7
2018-03-25T01:33:01Z,166.140.102.113,# 15.4204,  4.14479,    3.101, 0.9955, 17.434, 0.744747,  33.3023, 25 Mar 2018 01:32:52,  24.5714, 12.6, 219.5
2018-03-25T01:37:01Z,166.140.102.113,# 15.4226,  4.14487,    3.117, 0.9983, 17.459, 0.744679,  33.3012, 25 Mar 2018 01:36:52,  24.5701, 12.6, 221.9
2018-03-25T01:41:01Z,166.140.102.113,# 15.4171,  4.14439,    3.066, 1.0361, 17.519, 0.744705,  33.3016, 25 Mar 2018 01:40:52,  24.5715, 12.6, 217.4
2018-03-25T01:45:01Z,166.140.102.113,# 15.4015,  4.14267,    2.981, 1.0568, 17.609, 0.744952,  33.2994, 25 Mar 2018 01:44:52,  24.5734, 12.6, 220.9
2018-03-25T01:49:01Z,166.140.102.113,# 15.3690,  4.14022,    3.052, 1.2556, 17.714, 0.745077,  33.3049, 25 Mar 2018 01:48:52,  24.5847, 12.6, 214.6
2018-03-25T01:53:01Z,166.140.102.113,# 15.2903,  4.13161,    3.086, 1.2884, 17.934, 0.745666,  33.2943, 25 Mar 2018 01:52:52,  24.5939, 12.6, 217.7
2018-03-25T01:57:01Z,166.140.102.113,# 15.1486,  4.11581,    3.006, 1.2606, 18.239, 0.747462,  33.2724, 25 Mar 2018 01:56:52,  24.6079, 12.6, 217.8
2018-03-25T02:01:01Z,166.140.102.113,# 15.0183,  4.10093,    3.052, 1.1872, 18.516, 0.751546,  33.2487, 25 Mar 2018 02:00:52,  24.6180, 12.6, 217.1
2018-03-25T02:05:01Z,166.140.102.113,# 15.0106,  4.10160,    3.063, 1.2242, 18.591, 0.752894,  33.2613, 25 Mar 2018 02:04:52,  24.6294, 12.6, 217.7
2018-03-25T02:09:01Z,166.140.102.113,# 15.0257,  4.10327,    3.055, 1.2087, 18.662, 0.753401,  33.2636, 25 Mar 2018 02:08:52,  24.6279, 12.6, 218.4
2018-03-25T02:13:01Z,166.140.102.113,# 15.0013,  4.10123,    3.067, 1.2197, 18.732, 0.753930,  33.2659, 25 Mar 2018 02:12:52,  24.6350, 12.6, 218.8
2018-03-25T02:17:01Z,166.140.102.113,# 14.9975,  4.09914,    3.068, 1.2039, 18.776, 0.754263,  33.2502, 25 Mar 2018 02:16:52,  24.6238, 12.6, 219.3
2018-03-25T02:21:01Z,166.140.102.113,# 15.0048,  4.09679,    3.036, 1.2029, 18.828, 0.754315,  33.2227, 25 Mar 2018 02:20:52,  24.6010, 12.6, 219.1
2018-03-25T02:25:01Z,166.140.102.113,# 15.0004,  4.09684,    3.014, 1.2206, 18.872, 0.754437,  33.2270, 25 Mar 2018 02:24:52,  24.6052, 12.6, 218.3
2018-03-25T02:29:01Z,166.140.102.113,# 14.9967,  4.09663,    2.948, 1.2336, 18.911, 0.754538,  33.2282, 25 Mar 2018 02:28:52,  24.6069, 12.6, 217.1
2018-03-25T02:33:01Z,166.140.102.113,# 14.9908,  4.09611,    3.063, 1.2402, 18.960, 0.754626,  33.2285, 25 Mar 2018 02:32:52,  24.6084, 12.6, 220.0
2018-03-25T02:37:01Z,166.140.102.113,# 14.9832,  4.09599,    3.025, 1.2540, 19.013, 0.754711,  33.2339, 25 Mar 2018 02:36:52,  24.6143, 12.6, 218.7
2018-03-25T02:41:01Z,166.140.102.113,# 14.9823,  4.09618,    3.039, 1.3066, 19.101, 0.754783,  33.2364, 25 Mar 2018 02:40:52,  24.6163, 12.6, 220.6
2018-03-25T02:45:01Z,166.140.102.113,# 14.9815,  4.09622,    2.978, 1.3046, 19.209, 0.754810,  33.2375, 25 Mar 2018 02:44:52,  24.6174, 12.6, 221.4
2018-03-25T02:49:01Z,166.140.102.113,# 14.9747,  4.09583,    2.984, 1.3096, 19.407, 0.754896,  33.2397, 25 Mar 2018 02:48:52,  24.6206, 12.6, 221.5
2018-03-25T02:53:01Z,166.140.102.113,# 14.9662,  4.09535,    3.002, 1.3192, 19.707, 0.755041,  33.2425, 25 Mar 2018 02:52:52,  24.6246, 12.6, 219.3
2018-03-25T02:57:01Z,166.140.102.113,# 14.9592,  4.09469,    2.945, 1.3280, 20.025, 0.755180,  33.2425, 25 Mar 2018 02:56:52,  24.6261, 12.6, 216.8
2018-03-25T03:01:01Z,166.140.102.113,# 14.9513,  4.09536,    3.013, 1.3191, 20.539, 0.755425,  33.2553, 25 Mar 2018 03:00:52,  24.6377, 12.6, 220.5
2018-03-25T03:05:01Z,166.140.102.113,# 14.9496,  4.09636,    2.976, 1.3577, 21.320, 0.755558,  33.2658, 25 Mar 2018 03:04:52,  24.6461, 12.6, 216.8
2018-03-25T03:09:01Z,166.140.102.113,# 14.9545,  4.09792,    2.916, 1.3640, 21.594, 0.755603,  33.2758, 25 Mar 2018 03:08:52,  24.6528, 12.6, 216.2
2018-03-25T03:13:01Z,166.140.102.113,# 14.9456,  4.09853,    2.982, 1.3604, 21.503, 0.755657,  33.2890, 25 Mar 2018 03:12:52,  24.6648, 12.6, 219.0
2018-03-25T03:17:01Z,166.140.102.113,# 14.9427,  4.09892,    2.945, 1.3559, 21.281, 0.755744,  33.2949, 25 Mar 2018 03:16:52,  24.6700, 12.6, 216.0
2018-03-25T03:21:01Z,166.140.102.113,# 14.9200,  4.09766,    2.999, 1.3489, 20.939, 0.755932,  33.3029, 25 Mar 2018 03:20:52,  24.6812, 12.6, 217.1
2018-03-25T03:25:01Z,166.140.102.113,# 14.9123,  4.09718,    2.954, 1.2157, 19.768, 0.756402,  33.3052, 25 Mar 2018 03:24:52,  24.6846, 12.6, 218.3
2018-03-25T03:29:01Z,166.140.102.113,# 14.9227,  4.09816,    3.001, 1.2118, 18.899, 0.756356,  33.3051, 25 Mar 2018 03:28:52,  24.6823, 12.6, 216.2
2018-03-25T03:33:01Z,166.140.102.113,# 14.9327,  4.09973,    2.985, 1.2013, 18.484, 0.756222,  33.3108, 25 Mar 2018 03:32:52,  24.6844, 12.6, 214.6
2018-03-25T03:37:01Z,166.140.102.113,# 14.9460,  4.10202,    2.934, 1.2056, 18.261, 0.755997,  33.3202, 25 Mar 2018 03:36:52,  24.6888, 12.6, 220.0
2018-03-25T03:41:01Z,166.140.102.113,# 14.9449,  4.10255,    2.966, 1.2419, 18.099, 0.755857,  33.3260, 25 Mar 2018 03:40:52,  24.6935, 12.6, 219.5
2018-03-25T03:45:01Z,166.140.102.113,# 14.9251,  4.10091,    2.971, 1.2353, 18.012, 0.756157,  33.3280, 25 Mar 2018 03:44:52,  24.6993, 12.6, 220.5
2018-03-25T03:49:01Z,166.140.102.113,# 14.9192,  4.10013,    2.946, 1.2476, 17.966, 0.756283,  33.3260, 25 Mar 2018 03:48:52,  24.6991, 12.6, 219.1
2018-03-25T03:53:01Z,166.140.102.113,# 14.9249,  4.10047,    2.866, 1.2250, 17.944, 0.756317,  33.3243, 25 Mar 2018 03:52:52,  24.6965, 12.6, 219.0
2018-03-25T03:57:01Z,166.140.102.113,# 14.9247,  4.09997,    2.940, 1.2502, 17.908, 0.756284,  33.3199, 25 Mar 2018 03:56:52,  24.6931, 12.6, 220.0
2018-03-25T04:01:01Z,166.140.102.113,# 14.9115,  4.09862,    2.891, 1.2740, 17.903, 0.756549,  33.3189, 25 Mar 2018 04:00:52,  24.6953, 12.6, 218.8
2018-03-25T04:05:01Z,166.140.102.113,# 14.9111,  4.09811,    2.930, 1.2993, 17.931, 0.756579,  33.3147, 25 Mar 2018 04:04:52,  24.6921, 12.6, 218.0
2018-03-25T04:09:01Z,166.140.102.113,# 14.9108,  4.09777,    2.933, 1.2949, 17.963, 0.756632,  33.3118, 25 Mar 2018 04:08:52,  24.6899, 12.6, 221.9
2018-03-25T04:13:01Z,166.140.102.113,# 14.9399,  4.10328,    2.922, 1.2745, 17.964, 0.756324,  33.3370, 25 Mar 2018 04:12:52,  24.7030, 12.6, 217.5
2018-03-25T04:17:01Z,166.140.102.113,# 14.9685,  4.10816,    2.952, 1.2764, 17.873, 0.755709,  33.3567, 25 Mar 2018 04:16:52,  24.7120, 12.6, 219.1
2018-03-25T04:21:01Z,166.140.102.113,# 14.9746,  4.10996,    2.928, 1.2968, 17.792, 0.755398,  33.3678, 25 Mar 2018 04:20:52,  24.7194, 12.6, 218.6
2018-03-25T04:25:01Z,166.140.102.113,# 14.9750,  4.11089,    2.893, 1.3166, 17.746, 0.755248,  33.3759, 25 Mar 2018 04:24:52,  24.7255, 12.6, 218.0
2018-03-25T04:29:01Z,166.140.102.113,# 14.9678,  4.11110,    2.878, 1.3184, 17.716, 0.755303,  33.3840, 25 Mar 2018 04:28:52,  24.7333, 12.6, 219.0
2018-03-25T04:33:01Z,166.140.102.113,# 14.9742,  4.11196,    2.927, 1.3328, 17.694, 0.755211,  33.3863, 25 Mar 2018 04:32:52,  24.7336, 12.6, 218.0
2018-03-25T04:37:01Z,166.140.102.113,# 14.9753,  4.11244,    2.893, 1.3245, 17.681, 0.755166,  33.3897, 25 Mar 2018 04:36:52,  24.7360, 12.6, 215.6
2018-03-25T04:41:01Z,166.140.102.113,# 14.9494,  4.11123,    2.883, 1.3369, 17.672, 0.755477,  33.4009, 25 Mar 2018 04:40:52,  24.7502, 12.6, 219.8
2018-03-25T04:45:01Z,166.140.102.113,# 14.9547,  4.11191,    2.881, 1.3384, 17.663, 0.755629,  33.4026, 25 Mar 2018 04:44:52,  24.7504, 12.6, 216.0
2018-03-25T04:49:01Z,166.140.102.113,# 14.9530,  4.11131,    2.852, 1.3315, 17.649, 0.755453,  33.3986, 25 Mar 2018 04:48:52,  24.7477, 12.6, 215.7
2018-03-25T04:53:01Z,166.140.102.113,# 14.9494,  4.10981,    2.918, 1.3434, 17.656, 0.755565,  33.3880, 25 Mar 2018 04:52:52,  24.7402, 12.6, 215.4
2018-03-25T04:57:01Z,166.140.102.113,# 14.9284,  4.10506,    2.888, 1.3469, 17.670, 0.755957,  33.3629, 25 Mar 2018 04:56:52,  24.7256, 12.6, 218.6
2018-03-25T05:01:01Z,166.140.102.113,# 14.9419,  4.10813,    2.952, 1.3390, 17.703, 0.755881,  33.3793, 25 Mar 2018 05:00:52,  24.7352, 12.6, 218.2
2018-03-25T05:05:01Z,166.140.102.113,# 14.9581,  4.11058,    2.906, 1.3586, 17.700, 0.755670,  33.3876, 25 Mar 2018 05:04:52,  24.7382, 12.6, 217.5
2018-03-25T05:09:01Z,166.140.102.113,# 14.9425,  4.10731,    2.952, 1.3624, 17.683, 0.755630,  33.3713, 25 Mar 2018 05:08:52,  24.7289, 12.6, 216.1
2018-03-25T05:13:01Z,166.140.102.113,# 14.9354,  4.10598,    2.901, 1.3643, 17.703, 0.755948,  33.3653, 25 Mar 2018 05:12:52,  24.7258, 12.6, 218.2
2018-03-25T05:17:01Z,166.140.102.113,# 14.9208,  4.10399,    2.878, 1.3622, 17.731, 0.756226,  33.3597, 25 Mar 2018 05:16:52,  24.7247, 12.6, 216.8
2018-03-25T05:21:01Z,166.140.102.113,# 14.9308,  4.10673,    2.890, 1.3553, 17.747, 0.756143,  33.3760, 25 Mar 2018 05:20:52,  24.7351, 12.6, 219.1
2018-03-25T05:25:01Z,166.140.102.113,# 14.9251,  4.10669,    2.878, 1.3696, 17.735, 0.756212,  33.3805, 25 Mar 2018 05:24:52,  24.7399, 12.6, 219.1
2018-03-25T05:29:01Z,166.140.102.113,# 14.9402,  4.10762,    2.951, 1.3736, 17.720, 0.756077,  33.3760, 25 Mar 2018 05:28:52,  24.7330, 12.6, 216.0
2018-03-25T05:33:01Z,166.140.102.113,# 14.9483,  4.10900,    2.935, 1.3835, 17.708, 0.755831,  33.3817, 25 Mar 2018 05:32:52,  24.7357, 12.6, 219.8
2018-03-25T05:37:01Z,166.140.102.113,# 14.9357,  4.10812,    2.936, 1.3782, 17.701, 0.755969,  33.3844, 25 Mar 2018 05:36:52,  24.7405, 12.6, 216.9
2018-03-25T05:41:01Z,166.140.102.113,# 14.9330,  4.10615,    2.961, 1.4045, 17.699, 0.756018,  33.3688, 25 Mar 2018 05:40:52,  24.7291, 12.6, 215.8
2018-03-25T05:45:01Z,166.140.102.113,# 14.9130,  4.10281,    2.861, 1.3852, 17.727, 0.756282,  33.3557, 25 Mar 2018 05:44:52,  24.7233, 12.6, 220.1
2018-03-25T05:49:01Z,166.140.102.113,# 14.8867,  4.09833,    2.882, 1.3968, 17.762, 0.756732,  33.3376, 25 Mar 2018 05:48:52,  24.7150, 12.6, 218.7
2018-03-25T05:53:01Z,166.140.102.113,# 14.8091,  4.08745,    2.934, 1.3900, 17.852, 0.758060,  33.3050, 25 Mar 2018 05:52:52,  24.7067, 12.6, 218.8
2018-03-25T05:57:01Z,166.140.102.113,# 14.8081,  4.08734,    2.925, 1.3916, 17.949, 0.758621,  33.3048, 25 Mar 2018 05:56:52,  24.7067, 12.6, 218.6
2018-03-25T06:01:01Z,166.140.102.113,# 14.8616,  4.09651,    2.970, 1.4070, 17.985, 0.758195,  33.3424, 25 Mar 2018 06:00:52,  24.7241, 12.6, 218.1
2018-03-25T06:05:01Z,166.140.102.113,# 14.8799,  4.09854,    2.971, 1.4108, 17.949, 0.757726,  33.3451, 25 Mar 2018 06:04:52,  24.7223, 12.6, 221.2
2018-03-25T06:09:01Z,166.140.102.113,# 14.8855,  4.09941,    2.927, 1.4240, 17.909, 0.757516,  33.3483, 25 Mar 2018 06:08:52,  24.7235, 12.6, 217.2
2018-03-25T06:13:01Z,166.140.102.113,# 14.8933,  4.10010,    2.885, 1.4404, 17.877, 0.757276,  33.3479, 25 Mar 2018 06:12:52,  24.7216, 12.6, 219.9
2018-03-25T06:17:01Z,166.140.102.113,# 14.9024,  4.10138,    2.945, 1.4610, 17.865, 0.757127,  33.3517, 25 Mar 2018 06:16:52,  24.7225, 12.6, 218.2
2018-03-25T06:21:01Z,166.140.102.113,# 14.9424,  4.10778,    2.987, 1.4680, 17.829, 0.756397,  33.3756, 25 Mar 2018 06:20:52,  24.7323, 12.6, 216.7
2018-03-25T06:25:01Z,166.140.102.113,# 14.9272,  4.10527,    3.001, 1.4752, 17.777, 0.756367,  33.3657, 25 Mar 2018 06:24:52,  24.7279, 12.6, 217.5
2018-03-25T06:29:01Z,166.140.102.113,# 14.9337,  4.10626,    3.014, 1.4819, 17.757, 0.756196,  33.3692, 25 Mar 2018 06:28:52,  24.7292, 12.6, 215.8
2018-03-25T06:33:01Z,166.140.102.113,# 14.9601,  4.11010,    3.058, 1.4899, 17.732, 0.755816,  33.3815, 25 Mar 2018 06:32:52,  24.7330, 12.6, 216.6
2018-03-25T06:37:01Z,166.140.102.113,# 14.9426,  4.10895,    3.018, 1.4831, 17.703, 0.755773,  33.3861, 25 Mar 2018 06:36:52,  24.7404, 12.6, 216.4
2018-03-25T06:41:01Z,166.140.102.113,# 14.9225,  4.10659,    3.070, 1.4919, 17.684, 0.756214,  33.3818, 25 Mar 2018 06:40:52,  24.7413, 12.6, 220.2
2018-03-25T06:45:01Z,166.140.102.113,# 14.8982,  4.10385,    2.992, 1.4853, 17.700, 0.756446,  33.3777, 25 Mar 2018 06:44:52,  24.7435, 12.6, 217.6
2018-03-25T06:49:01Z,166.140.102.113,# 14.8828,  4.10140,    2.939, 1.5012, 17.721, 0.756916,  33.3687, 25 Mar 2018 06:48:52,  24.7399, 12.6, 218.1
2018-03-25T06:53:01Z,166.140.102.113,# 14.8736,  4.09934,    3.034, 1.4872, 17.753, 0.757267,  33.3578, 25 Mar 2018 06:52:52,  24.7334, 12.6, 218.4
2018-03-25T06:57:01Z,166.140.102.113,# 14.8893,  4.10193,    3.040, 1.4945, 17.792, 0.757294,  33.3679, 25 Mar 2018 06:56:52,  24.7378, 12.6, 219.8
2018-03-25T07:01:01Z,166.140.102.113,# 14.8872,  4.10211,    3.114, 1.4992, 17.801, 0.757122,  33.3713, 25 Mar 2018 07:00:52,  24.7408, 12.6, 216.4
2018-03-25T07:05:01Z,166.140.102.113,# 14.8865,  4.10177,    3.071, 1.4919, 17.787, 0.757136,  33.3689, 25 Mar 2018 07:04:52,  24.7391, 12.6, 219.1
2018-03-25T07:09:01Z,166.140.102.113,# 14.8856,  4.10002,    3.059, 1.5038, 17.808, 0.757342,  33.3538, 25 Mar 2018 07:08:52,  24.7277, 12.6, 219.1
2018-03-25T07:13:01Z,166.140.102.113,# 14.8870,  4.09935,    3.112, 1.5114, 17.841, 0.757243,  33.3465, 25 Mar 2018 07:12:52,  24.7218, 12.6, 220.0
2018-03-25T07:17:01Z,166.140.102.113,# 14.8661,  4.09589,    3.020, 1.5087, 17.879, 0.757503,  33.3329, 25 Mar 2018 07:16:52,  24.7158, 12.6, 221.1
2018-03-25T07:21:01Z,166.140.102.113,# 14.9010,  4.10335,    3.028, 1.5132, 17.886, 0.757186,  33.3708, 25 Mar 2018 07:20:52,  24.7375, 12.6, 218.6
2018-03-25T07:25:01Z,166.140.102.113,# 14.9099,  4.10490,    3.142, 1.5121, 17.818, 0.756783,  33.3772, 25 Mar 2018 07:24:52,  24.7406, 12.6, 221.5
2018-03-25T07:29:01Z,166.140.102.113,# 14.9009,  4.10339,    3.149, 1.5210, 17.789, 0.756873,  33.3712, 25 Mar 2018 07:28:52,  24.7378, 12.6, 220.0
2018-03-25T07:33:01Z,166.140.102.113,# 14.9086,  4.10246,    3.097, 1.5239, 17.771, 0.756800,  33.3562, 25 Mar 2018 07:32:52,  24.7246, 12.6, 217.7
2018-03-25T07:37:01Z,166.140.102.113,# 14.9167,  4.10508,    3.122, 1.5370, 17.771, 0.756613,  33.3731, 25 Mar 2018 07:36:52,  24.7360, 12.6, 220.9
2018-03-25T07:41:01Z,166.140.102.113,# 14.9250,  4.10594,    3.105, 1.5310, 17.764, 0.756463,  33.3737, 25 Mar 2018 07:40:52,  24.7346, 12.6, 217.8
2018-03-25T07:45:01Z,166.140.102.113,# 14.9316,  4.10681,    3.108, 1.5255, 17.755, 0.756289,  33.3759, 25 Mar 2018 07:44:52,  24.7349, 12.6, 218.8
2018-03-25T07:49:01Z,166.140.102.113,# 14.9178,  4.10436,    3.137, 1.5216, 17.749, 0.756327,  33.3655, 25 Mar 2018 07:48:52,  24.7297, 12.6, 218.5
2018-03-25T07:53:01Z,166.140.102.113,# 14.9261,  4.10558,    3.078, 1.5221, 17.763, 0.756434,  33.3695, 25 Mar 2018 07:52:52,  24.7311, 12.6, 221.5
2018-03-25T07:57:01Z,166.140.102.113,# 14.9411,  4.10745,    3.122, 1.5377, 17.743, 0.756142,  33.3736, 25 Mar 2018 07:56:52,  24.7311, 12.6, 219.2
2018-03-25T08:01:01Z,166.140.102.113,# 14.9596,  4.10967,    2.998, 1.5521, 17.717, 0.755751,  33.3780, 25 Mar 2018 08:00:52,  24.7305, 12.6, 219.2
2018-03-25T08:05:01Z,166.140.102.113,# 14.9778,  4.11249,    3.126, 1.5530, 17.684, 0.755380,  33.3879, 25 Mar 2018 08:04:52,  24.7341, 12.6, 217.4
2018-03-25T08:09:01Z,166.140.102.113,# 14.9716,  4.11164,    3.158, 1.5455, 17.651, 0.755245,  33.3856, 25 Mar 2018 08:08:52,  24.7336, 12.6, 217.2
2018-03-25T08:13:01Z,166.140.102.113,# 14.9056,  4.10191,    3.124, 1.5344, 17.653, 0.755854,  33.3537, 25 Mar 2018 08:12:52,  24.7234, 12.6, 217.3
2018-03-25T08:17:01Z,166.140.102.113,# 14.8732,  4.09466,    3.228, 1.5289, 17.737, 0.756910,  33.3156, 25 Mar 2018 08:16:52,  24.7009, 12.6, 218.9
2018-03-25T08:21:01Z,166.140.102.113,# 14.8624,  4.09014,    3.198, 1.5480, 17.842, 0.757369,  33.2838, 25 Mar 2018 08:20:52,  24.6787, 12.6, 219.1
2018-03-25T08:25:01Z,166.140.102.113,# 14.8701,  4.09173,    3.175, 1.5272, 17.921, 0.757477,  33.2916, 25 Mar 2018 08:24:52,  24.6831, 12.6, 219.3
2018-03-25T08:29:01Z,166.140.102.113,# 14.8729,  4.09324,    3.258, 1.5488, 17.944, 0.757530,  33.3030, 25 Mar 2018 08:28:52,  24.6913, 12.6, 217.9
2018-03-25T08:33:01Z,166.140.102.113,# 14.8745,  4.09510,    3.299, 1.5523, 17.953, 0.757490,  33.3184, 25 Mar 2018 08:32:52,  24.7029, 12.6, 217.9
2018-03-25T08:37:01Z,166.140.102.113,# 14.8798,  4.09804,    3.364, 1.5606, 17.931, 0.757413,  33.3406, 25 Mar 2018 08:36:52,  24.7189, 12.6, 219.9
2018-03-25T08:41:01Z,166.140.102.113,# 14.8861,  4.09940,    3.205, 1.5709, 17.901, 0.757292,  33.3476, 25 Mar 2018 08:40:52,  24.7229, 12.6, 218.1
2018-03-25T08:45:01Z,166.140.102.113,# 14.8841,  4.09884,    3.307, 1.5695, 17.881, 0.757295,  33.3442, 25 Mar 2018 08:44:52,  24.7207, 12.6, 218.6
2018-03-25T08:49:01Z,166.140.102.113,# 14.8730,  4.09541,    3.334, 1.5903, 17.887, 0.757399,  33.3225, 25 Mar 2018 08:48:52,  24.7063, 12.6, 222.0
2018-03-25T08:53:01Z,166.140.102.113,# 14.8768,  4.09611,    3.290, 1.5720, 17.920, 0.757412,  33.3257, 25 Mar 2018 08:52:52,  24.7080, 12.6, 219.3
2018-03-25T08:57:01Z,166.140.102.113,# 14.8794,  4.09471,    3.288, 1.5762, 17.930, 0.757438,  33.3107, 25 Mar 2018 08:56:52,  24.6959, 12.6, 216.9
2018-03-25T09:01:01Z,166.140.102.113,# 14.8746,  4.09326,    3.416, 1.5904, 17.935, 0.757442,  33.3016, 25 Mar 2018 09:00:52,  24.6899, 12.6, 220.7
2018-03-25T09:05:01Z,166.140.102.113,# 14.8820,  4.09150,    3.241, 1.6000, 17.958, 0.757440,  33.2794, 25 Mar 2018 09:04:52,  24.6711, 12.6, 217.5
2018-03-25T09:09:01Z,166.140.102.113,# 14.8899,  4.09065,    3.241, 1.5935, 17.999, 0.757202,  33.2648, 25 Mar 2018 09:08:52,  24.6582, 12.6, 217.4
2018-03-25T09:13:01Z,166.140.102.113,# 14.8921,  4.09204,    3.318, 1.5853, 18.027, 0.757112,  33.2757, 25 Mar 2018 09:12:52,  24.6661, 12.6, 217.8
2018-03-25T09:17:01Z,166.140.102.113,# 14.8791,  4.09258,    3.297, 1.5849, 18.032, 0.757285,  33.2916, 25 Mar 2018 09:16:52,  24.6813, 12.6, 222.2
2018-03-25T09:21:01Z,166.140.102.113,# 14.8763,  4.09268,    3.370, 1.5812, 18.011, 0.757401,  33.2949, 25 Mar 2018 09:20:52,  24.6843, 12.6, 219.3
2018-03-25T09:25:01Z,166.140.102.113,# 14.8726,  4.08616,    3.357, 1.6403, 17.995, 0.757437,  33.2388, 25 Mar 2018 09:24:52,  24.6420, 12.6, 219.4
2018-03-25T09:29:01Z,166.140.102.113,# 14.8736,  4.09358,    3.389, 1.6513, 17.988, 0.757497,  33.3054, 25 Mar 2018 09:28:52,  24.6930, 12.6, 218.1
2018-03-25T09:33:01Z,166.140.102.113,# 14.8738,  4.09429,    3.372, 1.6377, 17.968, 0.757557,  33.3116, 25 Mar 2018 09:32:52,  24.6978, 12.6, 217.1
2018-03-25T09:37:01Z,166.140.102.113,# 14.8667,  4.09406,    3.304, 1.6511, 17.947, 0.757614,  33.3156, 25 Mar 2018 09:36:52,  24.7024, 12.6, 216.4
2018-03-25T09:41:01Z,166.140.102.113,# 14.8725,  4.09520,    3.378, 1.6274, 17.918, 0.757583,  33.3211, 25 Mar 2018 09:40:52,  24.7053, 12.6, 216.1
2018-03-25T09:45:01Z,166.140.102.113,# 14.8726,  4.09566,    3.398, 1.6458, 17.901, 0.757554,  33.3251, 25 Mar 2018 09:44:52,  24.7085, 12.6, 218.0
2018-03-25T09:49:01Z,166.140.102.113,# 14.8669,  4.09564,    3.440, 1.6543, 17.912, 0.757635,  33.3298, 25 Mar 2018 09:48:52,  24.7133, 12.6, 217.4
2018-03-25T09:53:01Z,166.140.102.113,# 14.8697,  4.09623,    3.428, 1.6559, 17.920, 0.757645,  33.3328, 25 Mar 2018 09:52:52,  24.7150, 12.6, 217.6
2018-03-25T09:57:01Z,166.140.102.113,# 14.8651,  4.09622,    3.416, 1.6568, 17.927, 0.757700,  33.3366, 25 Mar 2018 09:56:52,  24.7190, 12.6, 220.2
2018-03-25T10:01:01Z,166.140.102.113,# 14.8638,  4.09657,    3.553, 1.6530, 17.935, 0.757707,  33.3409, 25 Mar 2018 10:00:52,  24.7225, 12.6, 219.9
2018-03-25T10:05:01Z,166.140.102.113,# 14.8576,  4.09582,    3.455, 1.6638, 17.932, 0.757851,  33.3394, 25 Mar 2018 10:04:52,  24.7227, 12.6, 218.3
2018-03-25T10:09:01Z,166.140.102.113,# 14.8452,  4.09276,    3.529, 1.6608, 17.950, 0.758067,  33.3222, 25 Mar 2018 10:08:52,  24.7122, 12.6, 217.8
2018-03-25T10:13:01Z,166.140.102.113,# 14.8541,  4.09172,    3.490, 1.6637, 17.985, 0.757998,  33.3051, 25 Mar 2018 10:12:52,  24.6970, 12.6, 216.5
2018-03-25T10:17:01Z,166.140.102.113,# 14.8653,  4.09171,    3.534, 1.6566, 18.023, 0.757855,  33.2954, 25 Mar 2018 10:16:52,  24.6871, 12.6, 219.3
2018-03-25T10:21:01Z,166.140.102.113,# 14.8677,  4.09216,    3.576, 1.6567, 18.037, 0.757727,  33.2974, 25 Mar 2018 10:20:52,  24.6881, 12.6, 218.4
2018-03-25T10:25:01Z,166.140.102.113,# 14.8680,  4.09353,    3.480, 1.6550, 18.041, 0.757691,  33.3097, 25 Mar 2018 10:24:52,  24.6975, 12.6, 217.6
2018-03-25T10:29:01Z,166.140.102.113,# 14.8641,  4.09268,    3.541, 1.6547, 18.030, 0.757716,  33.3052, 25 Mar 2018 10:28:52,  24.6949, 12.6, 219.1
2018-03-25T10:33:01Z,166.140.102.113,# 14.8690,  4.09332,    3.550, 1.6595, 18.027, 0.757669,  33.3069, 25 Mar 2018 10:32:52,  24.6952, 12.6, 215.5
2018-03-25T10:37:01Z,166.140.102.113,# 14.8634,  4.09312,    3.532, 1.6632, 18.022, 0.757710,  33.3098, 25 Mar 2018 10:36:52,  24.6986, 12.6, 221.1
2018-03-25T10:41:01Z,166.140.102.113,# 14.8613,  4.09255,    3.489, 1.6660, 18.019, 0.757784,  33.3065, 25 Mar 2018 10:40:52,  24.6965, 12.6, 219.2
2018-03-25T10:45:01Z,166.140.102.113,# 14.8636,  4.09216,    3.496, 1.6636, 18.015, 0.757783,  33.3010, 25 Mar 2018 10:44:52,  24.6918, 12.6, 219.4